Location: Palomar Mountain Lodge
(33.3110°N, 116.8495°W)
Time: 17:14:57
(UTC-08:00)

YAOGAN 1 - Pass Details

Date: 13 December 2025
Orbit: 605 x 607 km, 97.8° (Epoch: 17 January)

Event Time Altitude Azimuth Distance (km) Brightness Sun altitude
Rises 18:56:27 0° 188° (S) 2,844 6.2 -27.5°
Reaches altitude 10° 18:58:47 10° 198° (SSW) 1,945 5.4 -28.0°
Maximum altitude 19:02:35 32° 262° (W) 1,038 4.2 -28.8°
Drops below altitude 10° 19:06:25 10° 327° (NNW) 1,957 5.4 -29.5°
Sets 19:08:47 0° 337° (NNW) 2,864 6.1 -30.0°
